EW6020 Weather Reports


Display with metric or nautical units.
time (UTC)temp
F
wind
direction
speed
MPH
gust
MPH
rain 1hr
in
rain 24hr
in
rain mn
in
humidity
%
barometer
mb
20260509051508 57 178 1.0 6.0 0.00 0.00 0.00 75 1020.1
20260509050006 58 178 1.0 3.0 0.00 0.00 0.00 74 1020.0
20260509044505 58 177 2.0 4.0 0.00 0.00 0.00 74 1019.9
20260509043005 59 176 1.0 4.0 0.00 0.00 0.00 70 1019.8
20260509041505 61 179 1.0 8.0 0.00 0.00 0.00 66 1019.6
20260509040003 61 177 3.0 6.0 0.00 0.00 0.00 65 1019.3
20260509034502 62 154 2.0 8.0 0.00 0.00 0.00 64 1019.3
20260509033002 63 177 2.0 6.0 0.00 0.00 0.00 62 1019.3
20260509031501 64 178 4.0 11.0 0.00 0.00 0.00 60 1019.1
20260509030101 65 177 3.0 9.0 0.00 0.00 0.00 59 1019.1
20260509024559 65 178 7.0 10.0 0.00 0.00 0.00 58 1018.9
20260509023058 67 177 4.0 9.0 0.00 0.00 0.00 55 1018.9
20260509021559 67 178 1.0 4.0 0.00 0.00 0.00 55 1018.9
20260509020057 67 180 0.0 3.0 0.00 0.00 0.00 57 1018.8
20260509014557 68 180 3.0 5.0 0.00 0.00 0.00 53 1018.8
20260509013056 69 176 2.0 7.0 0.00 0.00 0.00 55 1018.8
20260509011605 68 160 3.0 6.0 0.00 0.00 0.00 54 1018.9
20260509010054 69 177 0.0 3.0 0.00 0.00 0.00 52 1019.1
20260509004607 68 178 2.0 7.0 0.00 0.00 0.00 53 1019.2
20260509003052 67 158 3.0 10.0 0.00 0.00 0.00 55 1019.1
20260509001551 68 154 4.0 7.0 0.00 0.00 0.00 52 1019.2
20260509000050 68 177 2.0 8.0 0.00 0.00 0.00 53 1019.3
20260508234548 66 162 0.0 7.0 0.00 0.00 0.00 55 1019.4
20260508233048 67 175 6.0 9.0 0.00 0.00 0.00 56 1019.5
20260508231550 67 177 1.0 6.0 0.00 0.00 0.00 56 1019.4
20260508230046 67 178 3.0 5.0 0.00 0.00 0.00 52 1019.4
20260508224545 65 160 5.0 10.0 0.00 0.00 0.00 58 1019.4
20260508223049 65 176 2.0 8.0 0.00 0.00 0.00 54 1019.5
20260508221543 66 162 3.0 6.0 0.00 0.00 0.00 55 1019.6
20260508220040 66 176 2.0 9.0 0.00 0.00 0.00 52 1019.7
20260508214548 64 155 2.0 11.0 0.00 0.00 0.00 57 1019.8
20260508213039 64 177 2.0 11.0 0.00 0.00 0.00 54 1019.8
20260508211539 63 151 3.0 8.0 0.00 0.00 0.00 56 1019.8
20260508210038 62 179 0.0 11.0 0.00 0.00 0.00 56 1019.8
20260508204543 65 153 6.0 10.0 0.00 0.00 0.00 55 1019.8
20260508203036 65 157 2.0 5.0 0.00 0.00 0.00 55 1019.7
20260508201535 63 178 0.0 9.0 0.00 0.00 0.00 54 1019.8
20260508200031 63 153 3.0 7.0 0.00 0.00 0.00 55 1019.8
20260508194531 62 176 5.0 9.0 0.00 0.00 0.00 59 1019.9
20260508193029 62 172 2.0 7.0 0.00 0.00 0.00 54 1019.9
20260508191531 62 176 1.0 5.0 0.00 0.00 0.00 56 1020.1
20260508190027 60 177 1.0 4.0 0.00 0.00 0.00 60 1020.1
20260508184521 59 179 0.0 3.0 0.00 0.00 0.00 65 1020.1
20260508183019 57 178 0.0 6.0 0.00 0.00 0.00 66 1020.2
20260508181517 57 178 1.0 7.0 0.00 0.00 0.00 68 1020.1
20260508180018 56 179 0.0 10.0 0.00 0.00 0.00 73 1019.9
20260508174512 56 176 0.0 3.0 0.00 0.00 0.00 71 1019.8
20260508173010 56 180 0.0 5.0 0.00 0.00 0.00 69 1019.7
20260508171507 55 177 4.0 7.0 0.00 0.00 0.00 69 1019.7
20260508170004 54 176 2.0 8.0 0.00 0.00 0.00 71 1019.7
20260508164501 54 178 2.0 7.0 0.00 0.00 0.00 75 1019.6
20260508163058 53 171 2.0 6.0 0.00 0.00 0.00 77 1019.4
20260508161557 52 158 5.0 8.0 0.00 0.00 0.00 77 1019.3
20260508160126 52 150 2.0 8.0 0.00 0.00 0.00 79 1019.1
20260508154557 51 179 4.0 9.0 0.00 0.00 0.00 79 1019.2
20260508153050 51 179 7.0 9.0 0.00 0.00 0.00 78 1018.9
20260508151551 50 146 4.0 7.0 0.00 0.00 0.00 84 1018.8
20260508150046 48 179 3.0 5.0 0.00 0.00 0.00 86 1018.7
20260508144547 48 179 3.0 5.0 0.00 0.00 0.00 88 1018.5
20260508143057 47 179 2.0 3.0 0.00 0.00 0.00 89 1018.7
20260508141552 46 179 1.0 4.0 0.00 0.00 0.00 91 1018.5
20260508140042 46 179 3.0 4.0 0.00 0.00 0.00 91 1018.6
20260508134538 45 179 1.0 2.0 0.00 0.00 0.00 92 1018.4
20260508133040 0 0.0 0.0 0.00 0.00 0.00 1017.9
20260508131530 0 0.0 0.0 0.00 0.00 0.00 1017.7
20260508130025 0 0.0 0.0 0.00 0.00 0.00 1017.5
20260508124520 0 0.0 0.0 0.00 0.00 0.00 1017.3
20260508123018 45 180 0.0 0.0 0.00 0.00 0.00 88 1017.1
20260508121546 46 179 0.0 2.0 0.00 0.00 0.00 87 1016.9
20260508120015 46 179 2.0 3.0 0.00 0.00 0.00 89 1016.5
20260508114512 46 179 0.0 0.0 0.00 0.00 0.00 90 1016.7
20260508113011 46 179 0.0 0.0 0.00 0.00 0.00 89 1016.6
20260508111509 46 179 0.0 1.0 0.00 0.00 0.00 89 1016.4
20260508110005 46 179 0.0 2.0 0.00 0.00 0.00 89 1016.0
20260508104505 46 179 2.0 3.0 0.00 0.00 0.00 89 1015.9
20260508103007 46 179 3.0 5.0 0.00 0.00 0.00 89 1015.8
20260508101601 46 179 2.0 5.0 0.00 0.00 0.00 90 1015.8
20260508100058 46 179 1.0 4.0 0.00 0.00 0.00 91 1015.6
20260508094609 47 179 3.0 4.0 0.00 0.00 0.00 90 1015.6
20260508093053 47 179 1.0 3.0 0.00 0.00 0.00 89 1015.5
20260508091554 48 179 2.0 5.0 0.00 0.00 0.00 89 1015.2
20260508090050 48 179 3.0 5.0 0.00 0.00 0.00 89 1015.2
20260508084547 48 179 4.0 6.0 0.00 0.00 0.00 88 1015.1
20260508083119 49 179 3.0 5.0 0.00 0.00 0.00 87 1015.0
20260508081551 49 179 3.0 4.0 0.00 0.00 0.00 87 1014.9
20260508080050 50 180 2.0 3.0 0.00 0.00 0.00 86 1014.8
20260508074537 51 179 2.0 3.0 0.00 0.00 0.00 85 1014.9
20260508073034 51 179 2.0 3.0 0.00 0.00 0.00 83 1014.8
20260508071534 52 179 2.0 3.0 0.00 0.00 0.00 82 1014.7
20260508070030 52 179 1.0 4.0 0.00 0.00 0.00 84 1014.7
20260508064544 53 179 2.0 4.0 0.00 0.00 0.00 80 1014.7
20260508063028 54 179 3.0 5.0 0.00 0.00 0.00 81 1014.7
20260508061528 55 179 4.0 7.0 0.00 0.00 0.00 80 1014.9
20260508060026 55 164 4.0 6.0 0.00 0.00 0.00 81 1014.8
20260508054525 56 153 2.0 3.0 0.00 0.00 0.00 79 1014.8
20260508053026 57 154 0.0 2.0 0.00 0.00 0.00 79 1014.7